ECHOSTAR 3

导读 | 豆包AI

EchoStar 3是美国EchoStar公司运营的通信卫星,由洛克希德·马丁公司建造,于1997年10月5日搭乘Atlas 2AS火箭发射升空。该卫星属于地球静止轨道卫星,主要承担卫星电视广播传输服务,设计服役年限期满后超期服役多年,2017年8月运营方EchoStar与其失去联系,正式结束通信服务使命,在EchoStar早期卫星通信网络布局中发挥了关键作用。

Basic Information
目录编号:
25004
目录名称:
ECHOSTAR 3
国际标识:
1997-059A
轨道中心:
EARTH
卫星名称:
ECHOSTAR 3
卫星全名:
--
卫星状态:
在轨 (已飞行10445 天)
发射日期:
1997-10-05 UTC
国别 :
美国 (US)
星等 :
--
Orbit Information
数据来源 国际轨道数据 AOE轨道数据
星历时间 2026-05-11T03:54:20+0800
1天前
查看轨道信息
2026-05-11T08:00:00+0800
21小时前
查看轨道信息
半长轴 42562.081km 42562.11km
偏心率 0.0015285 0.0015304
轨道倾角 9.439° 9.440°
近地点辐角 347.483° 348.118°
升交点赤经 56.123° 56.123°
平近点角 198.411° 258.499°
近地点 36118.887km 36118.835km
远地点 36249.001km 36249.111km
周期 1456.445分钟 1456.446分钟
每日圈数 0.988709 0.988708
Detailed Information
使用方式:
暂无
2D Orbit Map
3D Orbit Map
Orbit Altitude Analysis Chart
Orbit Inclination Analysis Chart
Orbit Comprehensive Analysis Chart
View Comprehensive Chart